This is the latest recevied weather packets stored in our database for station/object AJ7DN. If no packets are shown the sender has not sent any weather packets the latest 10 day(s).
| Time | Temp. | Humidity | Pressure | Rain* | Wind** | Luminosity | Snow |
|---|---|---|---|---|---|---|---|
| 1777694343 | 16.67° C | 58% | 1019.8 hPa | 0 mm | - | 0 W/m² | - |
| 1777694040 | 16.67° C | 59% | 1019.7 hPa | 0 mm | - | 0 W/m² | - |
| 1777693737 | 16.67° C | 59% | 1019.5 hPa | 0 mm | - | 0 W/m² | - |
| 1777693436 | 17.22° C | 60% | 1019.4 hPa | 0 mm | - | 0 W/m² | - |
| 1777693134 | 17.22° C | 60% | 1019.3 hPa | 0 mm | - | 0 W/m² | - |
| 1777692831 | 17.22° C | 61% | 1019.4 hPa | 0 mm | - | 0 W/m² | - |
| 1777692527 | 17.78° C | 61% | 1019.3 hPa | 0 mm | - | 0 W/m² | - |
| 1777692223 | 17.78° C | 61% | 1019 hPa | 0 mm | - | 0 W/m² | - |
| 1777691921 | 17.78° C | 60% | 1019.2 hPa | 0 mm | - | 0 W/m² | - |
| 1777691620 | 17.78° C | 61% | 1019.2 hPa | 0 mm | - | 0 W/m² | - |
| 1777691317 | 18.33° C | 61% | 1019 hPa | 0 mm | - | 2 W/m² | - |
| 1777691016 | 18.33° C | 60% | 1018.9 hPa | 0 mm | - | 2 W/m² | - |
| 1777690712 | 18.89° C | 60% | 1019.1 hPa | 0 mm | - | 4 W/m² | - |
| 1777690410 | 18.89° C | 60% | 1019.2 hPa | 0 mm | - | 5 W/m² | - |
| 1777690108 | 18.89° C | 67% | 1019 hPa | 0 mm | - | 8 W/m² | - |
| 1777689805 | 18.89° C | 68% | 1019 hPa | 0 mm | - | 10 W/m² | - |
| 1777689503 | 19.44° C | 65% | 1018.6 hPa | 0 mm | - | 12 W/m² | - |
| 1777689201 | 19.44° C | 65% | 1018.8 hPa | 0 mm | - | 15 W/m² | - |
| 1777688898 | 19.44° C | 64% | 1018.5 hPa | 0 mm | - | 16 W/m² | - |
| 1777688595 | 20° C | 64% | 1018.8 hPa | 0 mm | - | 19 W/m² | - |
| 1777688291 | 20° C | 63% | 1018.8 hPa | 0 mm | - | 22 W/m² | - |
| 1777687989 | 20° C | 63% | 1018.5 hPa | 0 mm | - | 23 W/m² | - |
| 1777687686 | 20° C | 64% | 1018.6 hPa | 0 mm | - | 25 W/m² | - |
| 1777687383 | 20.56° C | 62% | 1018.2 hPa | 0 mm | - | 26 W/m² | - |
| 1777687081 | 20.56° C | 62% | 1018.5 hPa | 0 mm | - | 29 W/m² | - |
* Rain latest hour (hover to see other rain measurements)
** Current wind speed in m/s (hover to see current wind gust speed)